Mexico City Airport, México

4:10 PM CST en Noviembre 16, 2018 (GMT -0600)
Lic Benito Juarez International

Tiempo Historia de MMMX - Noviembre, 2018

Change the Weather History Date:

Viernes, Noviembre 9, 2018

  Actual Average Record
Temperature  
Temperatura media 64 ° F -  
Temperatura máxima 75 ° F 69 ° F 78 ° F (1998)
Temperatura mínima 53 ° F 43 ° F 28 ° F (1996)
Degree Days  
Grados día de calefacción 1    
Growing Degree Days 14 (Base 50)    
Moisture  
Punto de rocío 43 ° F    
Average Humidity 51    
Maximum Humidity 77    
Minimum Humidity 20    
Precipitación  
Precipitación 0.00 pul - - ()
Presión al nivel del mar  
Presión al nivel del mar 30.16 pul    
Viento  
Velocidad del viento 6 mph ()    
Velocidad máxima del viento 18 mph    
Max Gust Speed -    
Visibilidad 8.6 Millas    
Eventos      
Averages and records for this station are not official NWS values.
T = Trace of Precipitation, MM = Missing Value Source: Averaged Metar Reports

Daily Weather History Graph

Daily Weather History Graph

Search for Another Location

Airport or City:

Astronomía

Nov. 09, 2018 Salida Puesta
Hora real 6:41 AM CST 5:59 PM CST
Crepúsculo civil 6:18 AM CST 6:21 PM CST
Crepúsculo náutico 5:51 AM CST 6:48 PM CST
Crepúsculo astronómico 5:25 AM CST 7:14 PM CST
Luna 8:26 AM CST (11/9) 7:53 PM CST (11/9)
Horas de luz 12h 03m
Horas de luz
11h 17m
Creciente, 5% of the Moon is Illuminated
Nov 9
Creciente
Nov 15
Cuarto creciente
Nov 22
Luna llena
Nov 29
Cuarto menguante
Dic 7
Nueva

Hourly Weather History & Observations

Hora (CST) Temp. Punto de rocío Humedad Presión Visibilidad Wind Dir Velocidad del viento Velocidad de ráfagas Precip Eventos Condiciones
12:54 AM 57.2 ° F 44.6 ° F 63% 30.31 pul 10.0 mi ENE 5.8 mph - N/A   Despejado
1:54 AM 57.2 ° F 44.6 ° F 63% 30.30 pul 10.0 mi Este 3.5 mph - N/A   Despejado
2:54 AM 57.2 ° F 46.4 ° F 67% 29.77 pul 10.0 mi Este 3.5 mph - N/A   Despejado
3:47 AM 57.2 ° F 44.6 ° F 63% 30.29 pul 10.0 mi Sin viento Sin viento - N/A   Muy nublado
4:45 AM 55.4 ° F 44.6 ° F 67% 30.29 pul 8.0 mi Este 6.9 mph - N/A   Muy nublado
5:48 AM 53.6 ° F 46.4 ° F 77% 29.84 pul 8.0 mi ENE 4.6 mph - N/A   Muy nublado
6:00 AM 53.6 ° F 46.4 ° F 77% 29.84 pul 8.0 mi ENE 4.6 mph - N/A   Muy nublado
6:52 AM 55.4 ° F 46.4 ° F 72% 30.31 pul 8.0 mi Este 3.5 mph - N/A   Muy nublado
7:41 AM 55.4 ° F 46.4 ° F 72% 30.32 pul 8.0 mi Este 6.9 mph - N/A   Muy nublado
8:48 AM 59.0 ° F 48.2 ° F 67% 29.90 pul 6.0 mi Este 5.8 mph - N/A   Muy nublado
9:15 AM 62.6 ° F 46.4 ° F 55% 30.34 pul 6.0 mi ESE 5.8 mph - N/A   Nubes dispersas
9:41 AM 64.4 ° F 48.2 ° F 56% 30.34 pul 6.0 mi Sin viento Sin viento - N/A   Nubes dispersas
10:23 AM 68.0 ° F 46.4 ° F 46% 30.34 pul 6.0 mi NNE 3.5 mph - N/A   Muy nublado
10:49 AM 69.8 ° F 46.4 ° F 43% 30.33 pul 5.0 mi NO 3.5 mph - N/A   Nubes dispersas
11:46 AM 71.6 ° F 39.2 ° F 31% 29.78 pul 8.0 mi Norte 5.8 mph - N/A   Nubes dispersas
12:44 PM 73.4 ° F 30.2 ° F 20% 30.28 pul 10.0 mi NNE 12.7 mph - N/A   Parcialmente nublado
1:47 PM 73.4 ° F 35.6 ° F 25% 30.24 pul 10.0 mi Norte 13.8 mph - N/A   Nubes dispersas
2:48 PM 75.2 ° F 32.0 ° F 21% 29.70 pul 10.0 mi NO 4.6 mph - N/A   Muy nublado
3:45 PM 75.2 ° F 37.4 ° F 25% 30.21 pul 10.0 mi NNE 10.4 mph - N/A   Nubes dispersas
4:45 PM 73.4 ° F 37.4 ° F 27% 30.21 pul 8.0 mi Norte 11.5 mph - N/A   Muy nublado
5:45 PM 71.6 ° F 35.6 ° F 27% 29.94 pul 10.0 mi Norte 12.7 mph - N/A   Muy nublado
6:30 PM 68.0 ° F 39.2 ° F 35% 30.26 pul 10.0 mi NE 13.8 mph - N/A   Muy nublado
6:46 PM 66.2 ° F 41.0 ° F 40% 30.27 pul 10.0 mi NNE 11.5 mph - N/A   Muy nublado
7:32 PM 62.6 ° F 46.4 ° F 55% 30.30 pul 10.0 mi NNE 18.4 mph - N/A   Muy nublado
7:48 PM 60.8 ° F 46.4 ° F 59% 30.31 pul 10.0 mi NNE 18.4 mph - N/A   Muy nublado
8:46 PM 60.8 ° F 44.6 ° F 55% 29.92 pul 10.0 mi Norte 13.8 mph - N/A   Nubes dispersas
9:44 PM 59.0 ° F 44.6 ° F 59% 30.38 pul 8.0 mi NNO 13.8 mph - N/A   Parcialmente nublado
10:43 PM 59.0 ° F 44.6 ° F 59% 30.38 pul 8.0 mi ONO 9.2 mph - N/A   Parcialmente nublado
11:46 PM 57.2 ° F 44.6 ° F 63% 29.88 pul 8.0 mi NNO 6.9 mph - N/A   Parcialmente nublado